This demonstration page uses our WeatherBlox Daily Observations layout. Learn more.

Left ArrowRight Arrow

Hourly Observations for February 25, 2021

Temp ( °F °C ) Dew Point ( °F °C ) Humidity (%) Winds ( mph kmh ) Pressure ( in mb ) Visibility ( mi km ) Precip ( " mm )
12:15 am 00:15 Clear 30 -1 30 -1 100 100 NNW 7 11 30.26 1025 10 16.0934 N/A
12:35 am 00:35 Clear 30 -1 30 -1 100 100 Calm 30.27 1025 10 16.0934 N/A
12:55 am 00:55 Clear 30 -1 30 -1 100 100 Calm 30.28 1025 10 16.0934 N/A
1:15 am 01:15 Clear 28 -2 28 -2 100 100 Calm 30.28 1025 10 16.0934 N/A
1:35 am 01:35 Clear 30 -1 30 -1 100 100 Calm 30.29 1026 10 16.0934 N/A
1:55 am 01:55 Clear 28 -2 28 -2 100 100 Calm 30.29 1026 10 16.0934 N/A
2:15 am 02:15 Clear 28 -2 28 -2 100 100 Calm 30.3 1026 10 16.0934 N/A
2:35 am 02:35 Clear 28 -2 28 -2 100 100 Calm 30.3 1026 10 16.0934 N/A
2:55 am 02:55 Clear 27 -3 27 -3 100 100 Calm 30.32 1027 10 16.0934 N/A
3:15 am 03:15 Clear 27 -3 27 -3 100 100 Calm 30.32 1027 10 16.0934 N/A
3:35 am 03:35 Clear 27 -3 27 -3 100 100 Calm 30.32 1027 10 16.0934 N/A
3:55 am 03:55 Clear 27 -3 27 -3 100 100 Calm 30.33 1027 10 16.0934 N/A
4:15 am 04:15 Clear 27 -3 27 -3 100 100 Calm 30.33 1027 10 16.0934 N/A
4:35 am 04:35 Clear 27 -3 27 -3 100 100 Calm 30.33 1027 10 16.0934 N/A
4:55 am 04:55 Clear 25 -4 25 -4 100 100 Calm 30.34 1027 10 16.0934 N/A
5:15 am 05:15 Clear 27 -3 27 -3 100 100 Calm 30.34 1027 10 16.0934 N/A
5:35 am 05:35 Clear 27 -3 27 -3 100 100 Calm 30.34 1027 10 16.0934 N/A
5:55 am 05:55 Clear 25 -4 25 -4 100 100 Calm 30.35 1028 10 16.0934 N/A
6:15 am 06:15 Clear 25 -4 25 -4 100 100 Calm 30.36 1028 10 16.0934 N/A
6:35 am 06:35 Clear 25 -4 25 -4 100 100 Calm 30.37 1028 10 16.0934 N/A
6:55 am 06:55 Clear 25 -4 25 -4 100 100 Calm 30.36 1028 10 16.0934 N/A
7:15 am 07:15 Partly Cloudy 25 -4 25 -4 100 100 Calm 30.37 1028 7 11.26538 N/A
7:35 am 07:35 Mostly Cloudy 25 -4 25 -4 100 100 Calm 30.37 1028 3 4.82802 N/A
7:55 am 07:55 Cloudy 27 -3 27 -3 100 100 Calm 30.38 1029 7 11.26538 N/A
8:15 am 08:15 Cloudy 27 -3 27 -3 100 100 Calm 30.4 1029 10 16.0934 N/A
8:35 am 08:35 Cloudy 28 -2 28 -2 100 100 Calm 30.4 1030 7 11.26538 N/A
8:55 am 08:55 Cloudy 28 -2 28 -2 100 100 Calm 30.41 1030 10 16.0934 N/A
9:15 am 09:15 Cloudy 30 -1 30 -1 100 100 Calm 30.42 1030 10 16.0934 N/A
9:35 am 09:35 Mostly Cloudy 32 0 32 0 100 100 Calm 30.43 1030 10 16.0934 N/A
9:55 am 09:55 Partly Cloudy 34 1 34 1 100 100 Calm 30.42 1030 10 16.0934 N/A
10:15 am 10:15 Partly Cloudy 34 1 34 1 100 100 Calm 30.42 1030 10 16.0934 N/A
10:35 am 10:35 Sunny 36 2 34 1 93 93 Calm 30.41 1030 10 16.0934 N/A
10:55 am 10:55 Sunny 37 3 34 1 87 87 Calm 30.4 1030 10 16.0934 N/A
11:15 am 11:15 Partly Cloudy 39 4 32 0 75 75 Calm 30.41 1030 10 16.0934 N/A
11:35 am 11:35 Mostly Cloudy 39 4 34 1 81 81 Calm 30.41 1030 10 16.0934 N/A
11:55 am 11:55 Partly Cloudy 39 4 32 0 75 75 Calm 30.41 1030 10 16.0934 N/A
12:15 pm 12:15 Sunny 41 5 32 0 70 70 Calm 30.41 1030 10 16.0934 N/A
12:35 pm 12:35 Partly Cloudy 43 6 32 0 66 66 WSW 3 6 30.4 1030 10 16.0934 N/A
12:55 pm 12:55 Partly Cloudy 41 5 32 0 70 70 Calm 30.39 1029 10 16.0934 N/A
1:15 pm 13:15 Partly Cloudy 43 6 30 -1 61 61 Calm 30.37 1029 10 16.0934 N/A
1:35 pm 13:35 Partly Cloudy 43 6 32 0 66 66 Calm 30.36 1028 10 16.0934 N/A
1:55 pm 13:55 Partly Cloudy 45 7 32 0 61 61 WNW 7 11 30.36 1028 10 16.0934 N/A
2:15 pm 14:15 Partly Cloudy 45 7 32 0 61 61 NW 5 7 30.35 1028 10 16.0934 N/A
2:35 pm 14:35 Partly Cloudy 43 6 32 0 66 66 WNW 8 13 30.35 1028 10 16.0934 N/A
2:55 pm 14:55 Partly Cloudy 45 7 32 0 61 61 WNW 10 17 30.34 1027 10 16.0934 N/A
3:15 pm 15:15 Mostly Cloudy 45 7 32 0 61 61 W 9 15 30.34 1027 10 16.0934 N/A
3:35 pm 15:35 Partly Cloudy 45 7 32 0 61 61 NW 9 15 30.35 1028 10 16.0934 N/A
3:55 pm 15:55 Mostly Cloudy 45 7 32 0 61 61 WNW 9 15 30.35 1028 10 16.0934 N/A
4:15 pm 16:15 Cloudy 45 7 32 0 61 61 NW 12 19 30.34 1027 10 16.0934 N/A
4:35 pm 16:35 Partly Cloudy 43 6 32 0 66 66 NW 9 15 30.34 1028 10 16.0934 N/A
4:55 pm 16:55 Sunny 43 6 32 0 66 66 WNW 7 11 30.34 1028 10 16.0934 N/A
5:15 pm 17:15 Sunny 43 6 32 0 66 66 W 8 13 30.35 1028 10 16.0934 N/A
5:35 pm 17:35 Sunny 41 5 30 -1 66 66 WNW 8 13 30.35 1028 10 16.0934 N/A
5:55 pm 17:55 Sunny 39 4 30 -1 70 70 Calm 30.36 1028 10 16.0934 N/A
6:15 pm 18:15 Sunny 37 3 28 -2 70 70 Calm 30.36 1028 10 16.0934 N/A
6:35 pm 18:35 Clear 37 3 28 -2 70 70 NW 7 11 30.37 1029 10 16.0934 N/A
6:55 pm 18:55 Clear 36 2 30 -1 81 81 Calm 30.38 1029 10 16.0934 N/A
7:15 pm 19:15 Clear 36 2 30 -1 81 81 Calm 30.39 1029 10 16.0934 N/A
7:35 pm 19:35 Clear 36 2 30 -1 81 81 Calm 30.4 1029 10 16.0934 N/A
7:55 pm 19:55 Clear 34 1 30 -1 87 87 Calm 30.4 1030 10 16.0934 N/A
8:15 pm 20:15 Clear 34 1 32 0 93 93 Calm 30.39 1029 10 16.0934 N/A
8:35 pm 20:35 Clear 32 0 30 -1 93 93 Calm 30.4 1029 10 16.0934 N/A
8:55 pm 20:55 Clear 32 0 32 0 100 100 Calm 30.39 1029 10 16.0934 N/A
9:15 pm 21:15 Clear 30 -1 30 -1 100 100 Calm 30.4 1029 10 16.0934 N/A
9:35 pm 21:35 Clear 30 -1 30 -1 100 100 Calm 30.41 1030 10 16.0934 N/A
9:55 pm 21:55 Clear 30 -1 30 -1 100 100 Calm 30.41 1030 10 16.0934 N/A
10:15 pm 22:15 Clear 30 -1 30 -1 100 100 Calm 30.41 1030 10 16.0934 N/A
10:35 pm 22:35 Clear 30 -1 30 -1 100 100 Calm 30.4 1029 10 16.0934 N/A
10:55 pm 22:55 Clear 30 -1 30 -1 100 100 Calm 30.4 1029 10 16.0934 N/A
11:15 pm 23:15 Clear 30 -1 30 -1 100 100 Calm 30.39 1029 10 16.0934 N/A
11:35 pm 23:35 Clear 30 -1 30 -1 100 100 Calm 30.39 1029 10 16.0934 N/A
11:55 pm 23:55 Clear 28 -2 28 -2 100 100 Calm 30.38 1029 10 16.0934 N/A

Powered by AerisWeather